Regional Weather Roundup
Issued by NWS Kansas City/Pleasant Hill, MO

Home | Current Version | Previous Version | Text Only | Print | Product List | Glossary On
Versions: 1 2 3 4 5 6 7 8 9 10 11 12 13 14 15 16 17 18 19 20 21 22 23 24 25 26 27 28 29 30 31 32 33 34 35 36 37 38 39 40 41 42 43 44 45 46 47 48 49 50
000
ASUS43 KEAX 250411
RWREAX

WEATHER ROUNDUP FOR EASTERN KANSAS AND NORTHWEST MISSOURI
NATIONAL WEATHER SERVICE KANSAS CITY/PLEASANT HILL MO
1100 PM CDT FRI APR 24 2015

KSZ040-057-103>105-MOZ028-029-037-043-250500-
...KANSAS CITY METROPOLITAN AREA...

CITY           SKY/WX    TMP DP  RH WIND       PRES   REMARKS
K.C. INTL      MOCLDY    62  55  77 SE17      29.56F
K.C. DOWNTOWN  CLOUDY    63  54  72 SE9G20    29.57F
LEES SUMMIT    CLOUDY    61  53  75 SE9       29.59F
OLATHE - IXD   CLOUDY    60  55  83 SE15      29.56F
OLATHE - OJC   CLOUDY    60  55  83 SE12      29.57F
LAWRENCE       CLOUDY    62  57  83 SE10      29.54F

$$

MOZ001>008-011>017-020>025-030>033-038>040-044>046-053-054-250500-
...NORTHERN AND CENTRAL MISSOURI...

CITY           SKY/WX    TMP DP  RH WIND       PRES   REMARKS
ST. JOSEPH     LGT RAIN  59  55  87 SE9G17    29.56F
MOSBY          LGT RAIN  61  54  77 SE10      29.58F
WARRENSBURG    CLOUDY    59  52  77 SE7       29.62F
WHITEMAN AFB   CLOUDY    58  53  82 S6        29.63R
CLINTON        PTCLDY    55  54  94 E3        29.64R
SEDALIA        PTCLDY    55  50  83 SE3       29.67R
WARSAW         NOT AVBL
MARSHALL       CLOUDY    59  54  82 SE12      29.65F
CHILLICOTHE      N/A     60  51  72 SE9       29.62F
MOBERLY        CLOUDY    57  46  67 SE12      29.68
KIRKSVILLE     CLOUDY    58  50  75 SE12      29.67F

$$

MOZ041-047>049-056>058-063>065-088>090-097-250500-
...EASTERN AND SOUTHERN MISSOURI...

CITY           SKY/WX    TMP DP  RH WIND       PRES   REMARKS
ST. LOUIS INTL CLOUDY    56  44  64 SE9       29.75F
SPIRIT OF STL  CLOUDY    55  45  68 VRB3      29.73F
COLUMBIA       CLOUDY    55  50  83 SE10      29.67F
JEFFERSON CITY CLOUDY    56  50  80 SE8       29.68S
MEXICO         CLOUDY    57  54  88 SE7       29.70
HANNIBAL       TSTM      57  45  62 SE7       29.71S
ROLLA          CLOUDY    53  49  86 S16G26    29.68F
LEBANON        CLOUDY    55  52  88 S15       29.65F
OSAGE BEACH    CLOUDY    57  50  77 SE8G16    29.65F
SPRINGFIELD    CLOUDY    57  55  93 SE20G28   29.61F
BRANSON        CLOUDY    57  57 100 SE9       29.67S
NEVADA         MOCLDY    54  52  94 E8        29.60F
JOPLIN         MOCLDY    61  56  83 S20G26    29.57F
WEST PLAINS    FOG       53  52  96 SE7       29.72F VSB 1/4

$$

IAZ060-094-KSZ022-034>040-054-083-096-NEZ052-066-093-250500-
...KANSAS...SOUTHEAST NEBRASKA AND IOWA...

CITY           SKY/WX    TMP DP  RH WIND       PRES   REMARKS
TOPEKA         PTCLDY    64  58  80 SE20G30   29.49F
MANHATTAN      RAIN      57  57 100 S8        29.46F FOG
EMPORIA        PTCLDY    64  59  83 S22G32    29.47F
CHANUTE        MOCLDY    62  59  90 S13       29.54F
WICHITA        PTCLDY    65  60  84 S18G30    29.47S
OMAHA          CLOUDY    58  53  84 E12       29.56S
LINCOLN        CLOUDY    58  54  86 SE13      29.52F
FALLS CITY     LGT RAIN  59  53  80 E17       29.49F
LAMONI         CLOUDY    57  53  86 SE8       29.59F
DES MOINES     DRIZZLE   50  45  83 E14G21    29.65F

$$



USA.gov is the U.S. government's official web portal to all federal, state and local government web resources and services.